Location: Unspecified
(43.0000°N, 0.0000°E)
Time: 16:51:36
(UTC+00:00)

KKS-1 - Visible Passes

Search period start: 21 July 2019 00:00
Search period end: 31 July 2019 00:00
Orbit: 636 x 651 km, 98.3° (Epoch: 21 July)

Date Brightness Start Highest point End Pass type
(mag) Time Alt. Az. Time Alt. Az. Time Alt. Az.
21 Jul ? 20:38:29 10° NNW 20:41:08 16° WNW 20:43:45 10° W visible
24 Jul ? 20:14:50 10° N 20:18:29 26° WNW 20:22:08 10° WSW visible
25 Jul ? 20:40:12 10° NNW 20:42:48 15° WNW 20:45:23 10° W visible
27 Jul ? 19:51:34 10° N 19:55:46 43° WNW 19:59:57 10° SW visible
28 Jul ? 20:16:32 10° NNW 20:20:09 25° WNW 20:23:47 10° WSW visible
29 Jul ? 20:41:56 10° NNW 20:44:28 15° WNW 20:47:00 10° W visible
